Location: Freistadt
(48.5112°N, 14.5013°E)
Time: 06:18:10
(UTC+02:00)

CUBEBUG 2 - Pass Details

Date: 08 April 2023
Orbit: 577 x 686 km, 97.8° (Epoch: 29 May)

Event Time Altitude Azimuth Distance (km) Brightness Sun altitude
Rises 02:58:24 0° 20° (NNE) 3,048 ? -29.0°
Reaches altitude 10° 03:00:51 10° 30° (NNE) 2,117 ? -28.8°
Maximum altitude 03:05:05 34° 95° (E) 1,088 ? -28.4°
Enters shadow 03:05:08 34° 97° (E) 1,088 ? -28.4°
